RH
26 18 18 16 14 13 12 17 46 87 94 89 76 82 99 100 90 89 82 98 99 98 96 91 98 99 64
26 20 19 18 15 15 12 11 17 42 87 90 95 89 85 100 97 85 83 86 100 91 93 96 98 86 42
41 27 20 21 18 16 16 14 12 21 54 87 90 94 90 100 100 83 84 77 98 86 87 99 94 55 35
40 39 28 22 26 23 17 18 15 22 29 70 90 98 99 100 99 94 84 86 90 86 84 98 94 38 29
46 66 37 35 42 37 34 26 17 35 35 69 82 97 93 100 99 94 86 86 81 89 84 84 88 29 27
78 81 71 54 64 66 57 50 43 44 86 62 96 90 98 100 99 98 92 88 78 90 83 81 72 27 27
96 92 91 68 82 100 89 80 72 48 57 45 73 87 83 90 99 97 96 89 88 59 82 79 54 28 28
96 96 94 77 81 94 85 86 78 66 78 78 65 82 76 99 100 100 98 92 88 70 72 71 52 30 28
96 84 72 68 88 96 92 97 90 80 99 100 96 94 84 91 97 100 99 98 91 84 72 76 59 31 32
82 85 94 95 98 97 96 97 94 90 88 95 85 99 98 88 95 100 100 100 94 90 63 88 71 37 42
100 91 84 76 69 72 83 87 89 92 98 100 100 100 100 93 100 100 100 100 98 94 73 92 86 34 33
92 89 86 79 70 68 74 74 76 74 97 98 91 99 100 100 100 100 100 100 100 99 96 80 94 57 30
96 99 98 83 82 84 84 85 85 79 80 82 80 91 98 99 100 100 100 100 100 100 100 91 98 99 68
92 82 80 81 85 84 88 85 96 84 75 81 80 92 94 97 98 99 100 100 100 100 99 99 98 99 57
89 91 88 93 92 87 86 85 97 100 89 78 86 95 96 97 98 99 100 100 100 100 100 100 100 91 72
87 97 99 100 100 100 100 100 98 100 94 90 90 100 99 96 97 98 100 100 100 100 100 99 100 98 52
92 92 88 88 98 94 95 100 100 98 100 99 98 99 99 95 97 98 98 99 100 100 100 100 99 98 85
Wind_Speed
33 31 32 29 26 24 22 19 21 25 25 26 28 37 40 54 48 44 41 43 41 36 34 31 28 26 22
34 30 34 30 29 27 25 21 20 23 28 21 21 29 36 60 52 45 44 44 44 40 36 33 31 28 23
35 31 31 33 30 28 27 24 20 21 22 30 21 25 47 60 56 49 48 48 48 43 39 36 33 29 26
35 33 29 32 31 30 30 26 24 17 24 25 24 13 32 59 62 53 54 51 50 47 43 40 36 32 28
32 31 28 30 30 28 29 30 24 18 19 19 33 25 21 58 79 65 58 55 52 50 46 43 40 34 30
30 32 29 28 29 27 27 28 29 16 22 24 24 29 11 44 70 62 60 57 54 53 49 46 42 36 33
34 34 32 29 28 23 24 25 27 28 26 29 23 32 34 25 43 67 66 60 57 55 52 49 45 39 35
36 37 35 33 34 31 31 32 30 25 20 28 21 28 41 19 32 73 68 64 58 56 55 51 47 42 38
31 33 31 30 25 23 24 24 27 23 20 18 16 18 36 40 33 62 71 68 62 56 58 54 49 45 40
30 29 28 29 28 27 28 28 26 25 21 19 21 13 18 37 39 41 78 70 65 57 58 57 53 49 45
29 28 26 27 29 30 30 30 30 28 22 17 9 10 14 22 9 57 80 75 67 59 53 60 55 54 51
30 30 28 27 26 25 24 25 27 30 26 24 30 24 12 24 22 32 64 77 71 65 57 58 56 55 52
33 30 28 29 24 23 22 23 23 26 28 33 35 34 29 21 15 18 43 68 74 70 63 61 63 59 55
34 32 28 28 27 26 24 23 25 26 26 28 31 36 35 28 24 21 23 44 69 72 67 60 64 62 60
32 30 28 27 28 27 27 27 27 26 26 25 27 29 34 34 33 28 24 34 62 71 71 67 64 67 64
32 30 30 28 25 23 24 27 30 28 26 24 23 23 27 34 34 33 31 27 41 65 73 70 67 65 67
30 30 29 26 28 28 28 27 29 28 28 25 25 25 25 31 29 35 35 31 33 62 72 72 69 68 67
Wind_Direction
295 301 305 309 310 307 299 277 250 247 241 254 248 231 219 204 206 207 208 200 194 193 190 181 181 182 179
291 294 297 303 306 307 306 291 268 247 240 240 249 221 232 208 203 210 208 209 196 192 191 182 183 185 180
288 290 291 297 299 301 303 300 281 255 246 239 244 239 216 209 206 207 208 212 197 193 190 184 186 187 181
283 287 288 290 296 301 299 300 295 275 247 241 241 250 222 215 211 210 208 210 201 194 189 186 189 189 182
278 284 284 287 295 299 300 301 298 290 254 243 234 238 245 209 212 209 205 209 206 195 190 187 192 189 185
277 279 283 285 293 296 296 299 305 271 266 239 238 240 234 202 209 203 204 207 209 196 192 188 194 189 187
272 274 282 281 288 292 290 292 290 290 292 266 250 237 236 248 218 207 202 206 208 201 194 190 194 188 189
246 254 262 271 275 277 283 283 285 288 296 286 266 243 230 242 214 208 201 204 208 206 195 192 194 189 190
256 260 260 260 266 279 277 282 283 285 286 291 280 259 238 241 245 214 203 202 207 208 196 193 194 188 192
266 256 255 252 251 249 260 265 270 276 276 270 266 270 249 242 246 222 203 200 204 209 201 194 194 188 192
267 266 261 255 254 251 248 251 255 255 250 259 252 243 210 227 236 203 201 196 200 206 210 195 196 193 192
261 261 263 263 261 257 252 253 256 250 239 251 256 259 242 231 248 199 193 195 197 200 203 200 198 199 197
254 258 264 265 266 265 256 251 256 251 249 250 251 247 246 244 212 220 193 192 195 197 201 200 195 200 198
257 258 261 261 261 262 260 258 255 257 250 251 250 245 243 240 234 202 189 190 191 197 200 201 200 202 202
254 256 256 256 257 258 256 255 254 253 257 256 247 245 242 241 243 230 200 193 193 193 198 198 203 204 205
253 253 255 252 249 247 251 246 246 246 252 257 249 245 240 240 236 233 217 206 193 192 197 197 198 207 209
252 252 250 252 244 249 251 246 246 243 248 250 241 239 235 240 237 233 224 221 203 191 196 201 199 204 208